TimeCST,TemperatureF,Dew PointF,Humidity,Sea Level PressureIn,VisibilityMPH,Wind Direction,Wind SpeedMPH,Gust SpeedMPH,PrecipitationIn,Events,Conditions,WindDirDegrees,DateUTC
12:35 AM,12.2,5.0,73,29.66,5.0,NW,21.9,29.9,N/A,Snow,Light Snow,320,2013-02-19 06:35:00
12:55 AM,12.2,5.0,73,29.67,10.0,NW,15.0,-,N/A,Snow,Light Snow,310,2013-02-19 06:55:00
1:15 AM,10.4,3.2,73,29.67,10.0,NW,16.1,24.2,N/A,Snow,Light Snow,310,2013-02-19 07:15:00
1:35 AM,10.4,3.2,73,29.69,10.0,NW,15.0,26.5,N/A,,Overcast,320,2013-02-19 07:35:00
1:55 AM,8.6,1.4,73,29.69,10.0,NW,18.4,24.2,N/A,,Overcast,320,2013-02-19 07:55:00
2:15 AM,8.6,1.4,73,29.70,10.0,NW,17.3,26.5,N/A,Snow,Light Snow,310,2013-02-19 08:15:00
2:35 AM,6.8,-0.4,72,29.71,10.0,NW,20.7,26.5,N/A,Snow,Light Snow,320,2013-02-19 08:35:00
2:55 AM,6.8,-0.4,72,29.72,7.0,NW,19.6,31.1,N/A,Snow,Light Snow,320,2013-02-19 08:55:00
3:15 AM,5.0,-0.4,78,29.72,7.0,NW,21.9,31.1,N/A,Snow,Light Snow,320,2013-02-19 09:15:00
3:35 AM,5.0,-2.2,72,29.73,7.0,NW,21.9,28.8,N/A,Snow,Light Snow,320,2013-02-19 09:35:00
3:55 AM,5.0,-2.2,72,29.74,7.0,NW,20.7,28.8,N/A,Snow,Light Snow,320,2013-02-19 09:55:00
4:15 AM,5.0,-4.0,66,29.74,7.0,NW,18.4,28.8,N/A,Snow,Light Snow,320,2013-02-19 10:15:00
4:35 AM,5.0,-4.0,66,29.75,7.0,NW,18.4,28.8,N/A,Snow,Light Snow,320,2013-02-19 10:35:00
4:55 AM,3.2,-4.0,72,29.75,7.0,NW,21.9,27.6,N/A,Snow,Light Snow,320,2013-02-19 10:55:00
5:15 AM,3.2,-4.0,72,29.76,7.0,NW,21.9,28.8,N/A,Snow,Light Snow,320,2013-02-19 11:15:00
5:55 AM,3.2,-4.0,72,29.79,5.0,NW,20.7,35.7,N/A,Snow,Light Snow,320,2013-02-19 11:55:00
6:15 AM,1.4,-5.8,72,29.80,7.0,NW,20.7,31.1,N/A,,Overcast,320,2013-02-19 12:15:00
6:35 AM,1.4,-5.8,72,29.81,5.0,NW,19.6,25.3,N/A,,Haze,320,2013-02-19 12:35:00
6:55 AM,1.4,-5.8,72,29.81,5.0,NW,23.0,31.1,N/A,,Haze,320,2013-02-19 12:55:00
7:15 AM,-0.4,-7.6,72,29.83,7.0,NW,24.2,29.9,N/A,,Overcast,320,2013-02-19 13:15:00
7:35 AM,-0.4,-7.6,72,29.84,7.0,NW,20.7,27.6,N/A,,Mostly Cloudy,320,2013-02-19 13:35:00
7:55 AM,-0.4,-7.6,72,29.86,7.0,NW,20.7,27.6,N/A,,Overcast,320,2013-02-19 13:55:00
8:15 AM,-0.4,-7.6,72,29.87,10.0,NW,21.9,31.1,N/A,,Mostly Cloudy,320,2013-02-19 14:15:00
8:35 AM,-0.4,-9.4,66,29.88,10.0,NNW,23.0,28.8,N/A,,Scattered Clouds,330,2013-02-19 14:35:00
8:55 AM,-0.4,-7.6,72,29.89,10.0,NW,15.0,28.8,N/A,,Scattered Clouds,320,2013-02-19 14:55:00
9:15 AM,-0.4,-9.4,66,29.89,10.0,NW,19.6,26.5,N/A,,Scattered Clouds,320,2013-02-19 15:15:00
9:35 AM,-0.4,-9.4,66,29.91,10.0,NW,24.2,28.8,N/A,,Scattered Clouds,320,2013-02-19 15:35:00
9:55 AM,-0.4,-9.4,66,29.92,10.0,NW,17.3,28.8,N/A,,Scattered Clouds,320,2013-02-19 15:55:00
10:15 AM,-0.4,-9.4,66,29.93,10.0,NW,15.0,25.3,N/A,,Clear,320,2013-02-19 16:15:00
10:35 AM,1.4,-9.4,61,29.93,10.0,NW,18.4,24.2,N/A,,Clear,310,2013-02-19 16:35:00
10:55 AM,1.4,-9.4,61,29.94,10.0,NNW,17.3,24.2,N/A,,Clear,330,2013-02-19 16:55:00
11:15 AM,3.2,-9.4,56,29.95,10.0,NW,20.7,25.3,N/A,,Clear,320,2013-02-19 17:15:00
11:35 AM,3.2,-7.6,61,29.95,10.0,NW,18.4,25.3,N/A,,Clear,320,2013-02-19 17:35:00
11:55 AM,3.2,-7.6,61,29.96,10.0,NW,16.1,25.3,N/A,,Clear,320,2013-02-19 17:55:00
12:15 PM,5.0,-7.6,56,29.96,10.0,NW,16.1,24.2,N/A,,Clear,310,2013-02-19 18:15:00
12:35 PM,5.0,-7.6,56,29.97,10.0,NW,17.3,20.7,N/A,,Clear,310,2013-02-19 18:35:00
12:55 PM,6.8,-5.8,56,29.97,10.0,WNW,16.1,26.5,N/A,,Clear,300,2013-02-19 18:55:00
1:15 PM,6.8,-5.8,56,29.98,10.0,WNW,18.4,25.3,N/A,,Clear,300,2013-02-19 19:15:00
1:35 PM,8.6,-5.8,52,29.98,10.0,NW,17.3,24.2,N/A,,Clear,320,2013-02-19 19:35:00
1:55 PM,8.6,-5.8,52,29.98,10.0,NW,15.0,26.5,N/A,,Clear,320,2013-02-19 19:55:00
2:15 PM,8.6,-5.8,52,29.99,10.0,NW,16.1,25.3,N/A,,Clear,320,2013-02-19 20:15:00
2:35 PM,8.6,-5.8,52,30.00,10.0,NW,18.4,24.2,N/A,,Clear,310,2013-02-19 20:35:00
2:55 PM,8.6,-5.8,52,30.01,10.0,NW,18.4,23.0,N/A,,Clear,310,2013-02-19 20:55:00
3:15 PM,8.6,-5.8,52,30.02,10.0,NW,17.3,23.0,N/A,,Clear,310,2013-02-19 21:15:00
3:35 PM,8.6,-5.8,52,30.03,10.0,NW,17.3,23.0,N/A,,Clear,310,2013-02-19 21:35:00
3:55 PM,8.6,-5.8,52,30.05,10.0,NW,13.8,-,N/A,,Clear,310,2013-02-19 21:55:00
4:15 PM,8.6,-5.8,52,30.06,10.0,NW,16.1,19.6,N/A,,Clear,320,2013-02-19 22:15:00
4:35 PM,8.6,-5.8,52,30.07,10.0,NW,12.7,-,N/A,,Clear,310,2013-02-19 22:35:00
4:55 PM,8.6,-5.8,52,30.08,10.0,NW,16.1,20.7,N/A,,Clear,310,2013-02-19 22:55:00
5:15 PM,8.6,-5.8,52,30.09,10.0,NW,13.8,-,N/A,,Clear,320,2013-02-19 23:15:00
6:35 PM,5.0,-7.6,56,30.13,10.0,NNW,15.0,20.7,N/A,,Clear,330,2013-02-20 00:35:00
7:35 PM,3.2,-7.6,61,30.16,10.0,NNW,16.1,19.6,N/A,,Clear,330,2013-02-20 01:35:00
7:55 PM,3.2,-7.6,61,30.17,10.0,NNW,15.0,-,N/A,,Clear,330,2013-02-20 01:55:00
8:15 PM,3.2,-7.6,61,30.17,10.0,NNW,16.1,24.2,N/A,,Clear,340,2013-02-20 02:15:00
8:35 PM,3.2,-7.6,61,30.18,10.0,NNW,15.0,20.7,N/A,,Clear,340,2013-02-20 02:35:00
8:55 PM,3.2,-7.6,61,30.20,10.0,NNW,10.4,19.6,N/A,,Clear,330,2013-02-20 02:55:00
9:15 PM,1.4,-7.6,66,30.20,10.0,NNW,10.4,-,N/A,,Clear,330,2013-02-20 03:15:00
9:35 PM,3.2,-7.6,61,30.21,10.0,North,12.7,19.6,N/A,,Clear,350,2013-02-20 03:35:00
9:55 PM,3.2,-7.6,61,30.22,10.0,NNW,10.4,17.3,N/A,,Clear,340,2013-02-20 03:55:00
10:15 PM,1.4,-7.6,66,30.22,10.0,North,12.7,-,N/A,,Clear,350,2013-02-20 04:15:00
10:35 PM,1.4,-7.6,66,30.22,10.0,North,12.7,20.7,N/A,,Clear,350,2013-02-20 04:35:00
10:55 PM,1.4,-7.6,66,30.23,10.0,North,10.4,-,N/A,,Clear,350,2013-02-20 04:55:00
11:15 PM,1.4,-7.6,66,30.23,10.0,NNW,9.2,-,N/A,,Clear,340,2013-02-20 05:15:00
11:35 PM,1.4,-7.6,66,30.24,10.0,North,11.5,17.3,N/A,,Clear,350,2013-02-20 05:35:00
11:55 PM,1.4,-7.6,66,30.24,10.0,North,11.5,-,N/A,,Clear,350,2013-02-20 05:55:00